STARLINK-11496, 62267

Orbit data source: Space-Track

STARLINK-11496, 62267 is a payload satellite owned by SpaceX/Seattle (US) in LEO that was launched on Sun, 08 Dec 2024 UTC via an FALCON 9 launch vehicle from the Air Force Eastern Test Range (AFETR). Payload-class satellites include a variety of spacecraft equipped with specific instruments for various scientific and technological missions. These include communications satellites like Starlink; space stations such as the ISS; scientific satellites like the Hubble; Earth observation satellites from companies like Planet Labs, Umbra, and HawkEye 360; GPS; miniature CubeSats for education and research; and military/defense satellites.

Loading next visibility...
Identifier
62267, 2024-237A
Orbit
LEO
Country
Flag of USUS
Related business
Manufacturer
SpaceX/Seattle
Mission
Operational Commercial Communications
Bus & Motor
STARLINK V2MD, Unknown motor
Mass
960 kg wet, ~910 kg dry
Launch date (UTC)
2024-12-08 (2 years ago)
Launch vehicle
FALCON 9
Launch site
Air Force Eastern Test Range (AFETR)
Object type
Payload
Rocket body
Debris
Shape & HBR
Box + 2 Pan, 18.1 m
Radar Cross Section
36.964 m², Large (>1 m²)

Expand to show TLE details & history
Last TLE update: 13 hours ago

TLE from 13 hours ago
0 STARLINK-11496
1 62267U 24237A   26171.34575926  .00221694  00000-0  16798-2 0  9996
2 62267  43.0008 158.1731 0002290 274.2840  85.7766 15.70920098 89193
Epoch: 2026-06-20T08:17Z
TLE epoch observation values (Epoch: 2026-06-20T08:17:53.600Z)
Latitude
Longitude
125.13806°
Altitude
355.924 km
Speed
7.698 km/s
True Right ascension
10h 32m 41s
True Declination
0° 00' 00"
Sunlit
Object was in daylight at epoch
Visualization orbit readout
Latitude
Unknown
Longitude
Unknown
Altitude
Unknown
Speed
Unknown
Apparent Right ascension
Unknown
Apparent Declination
Unknown
Sunlit
N/A
Visualization observer readout
Local Sidereal Time
08:41:34
Azimuth
Unknown
Elevation
Unknown
Doppler factor
Unknown
Orbital elements
Apogee altitude
359.79 km
Perigee altitude
356.705 km
Semi-major axis
6,736.385 km
Eccentricity
0.00023
Inclination
43.0008°
RAAN
158.1731°
Arg. of periapsis
274.284°
True anomaly
85.80277°
Mean anomaly
85.7766°
Eccentric anomaly
85.78969°
Mean motion
3.92557 °/min
Orbital period
91.71 mins
BSTAR
0.0016798
Loading maneuver chart data...
Computing Atmospheric mass density...
Loading historical data...
Loading historical data...
Loading historical data...
Loading historical data...
Loading historical data...
Loading historical data...
Loading historical data...

Documentation

Showing up to 5 results
|